^^
Datos históricos de la estación: Murcia-Puente Tocinos
Diario Informe para Marzo 21, 2019 Unidades:  Métrico    Inglés   Ambas
Diario Semanal Mensual Anual Configurable
  Máximo: Mínimo: Media:
Temperatura: 17.3 °C 7.1 °C 11.8 °C
Punto de rocio: 5.5 °C 1.5 °C 3.7 °C
Humedad: 79% 36% 59%
Velocidad viento: 18.0km/h 0.0km/h 8.3km/h
Racha viento: 37.0km/h - -
Viento- - SSE
Presión: 1026.7 hPa 1023.0 hPa -
Precipitación: 0.0 mm    
Historical Graphs
 
 
Tabla de datos para Marzo 21, 2019
Hora Temperatura Punto de rocio Presión Viento Velocidad viento Racha viento Humedad Intensidad lluvia(por hora) Nubes
00:00 9.6 °C 5.0 °C 1026.7 hPa SW 8.0 km/h 11.3 km/h 73% 0.0 mm CLR
00:05 9.6 °C 4.8 °C 1026.7 hPa West 6.9 km/h 5.6 km/h 72% 0.0 mm CLR
00:10 9.6 °C 4.8 °C 1026.7 hPa WNW 3.2 km/h 4.7 km/h 72% 0.0 mm CLR
00:15 9.4 °C 4.8 °C 1026.7 hPa WNW 3.2 km/h 3.7 km/h 73% 0.0 mm CLR
00:20 9.2 °C 4.8 °C 1026.6 hPa WNW 2.9 km/h   74% 0.0 mm CLR
00:25 9.1 °C 4.7 °C 1026.6 hPa WNW 2.9 km/h 3.7 km/h 74% 0.0 mm CLR
00:30 8.9 °C 4.7 °C 1026.6 hPa Calm     75% 0.0 mm CLR
00:35 8.8 °C 4.6 °C 1026.6 hPa Calm     75% 0.0 mm CLR
00:40 8.7 °C 4.7 °C 1026.6 hPa Calm     76% 0.0 mm CLR
00:45 8.6 °C 4.6 °C 1026.6 hPa Calm     76% 0.0 mm CLR
00:50 8.6 °C 4.6 °C 1026.5 hPa Calm     76% 0.0 mm CLR
00:55 8.5 °C 4.5 °C 1026.5 hPa Calm     76% 0.0 mm CLR
01:00 8.5 °C 4.7 °C 1026.5 hPa Calm   6.4 km/h 77% 0.0 mm CLR
01:05 8.6 °C 4.8 °C 1026.5 hPa Calm   3.7 km/h 77% 0.0 mm CLR
01:10 8.4 °C 4.4 °C 1026.5 hPa WNW 3.2 km/h 5.6 km/h 76% 0.0 mm CLR
01:15 8.1 °C 4.5 °C 1026.5 hPa WNW 3.2 km/h 3.7 km/h 78% 0.0 mm CLR
01:20 8.0 °C 4.4 °C 1026.4 hPa WNW 2.9 km/h   78% 0.0 mm CLR
01:25 8.0 °C 4.6 °C 1026.4 hPa WNW 2.9 km/h 3.7 km/h 79% 0.0 mm CLR
01:30 8.1 °C 4.7 °C 1026.4 hPa WNW 2.3 km/h 5.6 km/h 79% 0.0 mm CLR
01:35 8.2 °C 4.8 °C 1026.3 hPa WNW 2.3 km/h 3.7 km/h 79% 0.0 mm CLR
01:40 8.3 °C 4.7 °C 1026.3 hPa SW 2.9 km/h 5.8 km/h 78% 0.0 mm CLR
01:45 8.4 °C 4.6 °C 1026.3 hPa SW 2.9 km/h 11.1 km/h 77% 0.0 mm CLR
01:50 8.6 °C 4.6 °C 1026.1 hPa SW 5.8 km/h 7.4 km/h 76% 0.0 mm CLR
01:55 8.6 °C 4.6 °C 1026.1 hPa SW 5.8 km/h   76% 0.0 mm CLR
02:00 8.6 °C 4.6 °C 1026.1 hPa SW 3.2 km/h 8.0 km/h 76% 0.0 mm CLR
02:05 8.7 °C 4.5 °C 1026.2 hPa WSW 2.9 km/h 8.7 km/h 75% 0.0 mm CLR
02:10 8.7 °C 4.5 °C 1026.2 hPa SW 4.7 km/h 7.4 km/h 75% 0.0 mm CLR
02:15 8.7 °C 4.5 °C 1026.2 hPa SW 4.7 km/h 3.7 km/h 75% 0.0 mm CLR
02:20 8.7 °C 4.5 °C 1026.1 hPa SW 3.2 km/h 10.0 km/h 75% 0.0 mm CLR
02:25 8.6 °C 4.4 °C 1026.1 hPa SSW 3.2 km/h 7.4 km/h 75% 0.0 mm CLR
02:30 8.6 °C 4.4 °C 1026.1 hPa SSW 5.8 km/h 9.3 km/h 75% 0.0 mm CLR
02:35 8.5 °C 4.3 °C 1026.0 hPa SW 5.8 km/h 9.3 km/h 75% 0.0 mm CLR
02:40 8.4 °C 4.2 °C 1026.0 hPa SSW 6.4 km/h 9.3 km/h 75% 0.0 mm CLR
02:45 8.4 °C 4.2 °C 1026.0 hPa SW 6.4 km/h 11.1 km/h 75% 0.0 mm CLR
02:50 8.4 °C 4.1 °C 1025.8 hPa West 5.8 km/h 9.3 km/h 74% 0.0 mm CLR
02:55 8.3 °C 3.9 °C 1025.8 hPa WSW 5.8 km/h 11.1 km/h 74% 0.0 mm CLR
03:00 8.3 °C 3.9 °C 1025.8 hPa SW 4.8 km/h 12.9 km/h 74% 0.0 mm CLR
03:05 8.3 °C 3.9 °C 1025.7 hPa SW 5.8 km/h 9.3 km/h 74% 0.0 mm CLR
03:10 8.3 °C 3.9 °C 1025.7 hPa SSW 6.9 km/h 7.6 km/h 74% 0.0 mm CLR
03:15 8.3 °C 3.9 °C 1025.7 hPa SSW 6.9 km/h 7.6 km/h 74% 0.0 mm CLR
03:20 8.4 °C 4.1 °C 1025.5 hPa SW 6.9 km/h 7.4 km/h 74% 0.0 mm CLR
03:25 8.4 °C 3.8 °C 1025.5 hPa SW 6.9 km/h 7.6 km/h 73% 0.0 mm CLR
03:30 8.3 °C 3.7 °C 1025.5 hPa SW 5.8 km/h 9.3 km/h 73% 0.0 mm CLR
03:35 8.3 °C 3.6 °C 1025.2 hPa SSW 5.8 km/h 7.4 km/h 72% 0.0 mm CLR
03:40 8.2 °C 3.4 °C 1025.2 hPa SW 6.4 km/h 7.4 km/h 72% 0.0 mm CLR
03:45 8.2 °C 3.4 °C 1025.2 hPa South 6.4 km/h 8.4 km/h 72% 0.0 mm CLR
03:50 8.1 °C 3.6 °C 1025.1 hPa SSW 5.8 km/h 9.3 km/h 73% 0.0 mm CLR
03:55 7.9 °C 3.3 °C 1025.1 hPa SSW 5.8 km/h 7.4 km/h 73% 0.0 mm CLR
04:00 7.9 °C 3.3 °C 1025.1 hPa SSW 8.0 km/h 12.9 km/h 73% 0.0 mm CLR
04:05 7.8 °C 3.3 °C 1025.0 hPa SSW 6.4 km/h 11.1 km/h 73% 0.0 mm CLR
04:10 7.8 °C 3.3 °C 1025.0 hPa SSW 6.9 km/h 7.4 km/h 73% 0.0 mm CLR
04:15 7.8 °C 3.3 °C 1025.0 hPa SSW 6.9 km/h 11.1 km/h 73% 0.0 mm CLR
04:20 7.8 °C 3.3 °C 1024.9 hPa SW 6.4 km/h 9.3 km/h 73% 0.0 mm CLR
04:25 7.8 °C 3.4 °C 1024.9 hPa SSW 6.4 km/h 11.1 km/h 74% 0.0 mm CLR
04:30 7.8 °C 3.4 °C 1024.9 hPa SSW 6.9 km/h 9.3 km/h 74% 0.0 mm CLR
04:35 7.8 °C 3.4 °C 1024.9 hPa SW 6.9 km/h 11.1 km/h 74% 0.0 mm CLR
04:40 7.7 °C 3.2 °C 1024.9 hPa SSW 7.6 km/h 11.1 km/h 73% 0.0 mm CLR
04:45 7.7 °C 3.2 °C 1024.9 hPa SSW 7.6 km/h 9.3 km/h 73% 0.0 mm CLR
04:50 7.7 °C 3.3 °C 1024.9 hPa SW 7.6 km/h 7.4 km/h 74% 0.0 mm CLR
04:55 7.7 °C 3.3 °C 1024.9 hPa SW 7.6 km/h 9.3 km/h 74% 0.0 mm CLR
05:00 7.6 °C 3.3 °C 1024.9 hPa SSW 8.0 km/h 11.3 km/h 74% 0.0 mm CLR
05:05 7.7 °C 3.2 °C 1025.0 hPa South 6.9 km/h 13.7 km/h 73% 0.0 mm CLR
05:10 7.7 °C 3.2 °C 1025.0 hPa SSW 8.4 km/h 11.1 km/h 73% 0.0 mm CLR
05:15 7.7 °C 3.2 °C 1025.0 hPa SW 8.4 km/h 9.3 km/h 73% 0.0 mm CLR
05:20 7.6 °C 3.1 °C 1025.1 hPa SSW 7.6 km/h 11.1 km/h 73% 0.0 mm CLR
05:25 7.5 °C 2.9 °C 1025.1 hPa SSW 7.6 km/h 11.1 km/h 73% 0.0 mm CLR
05:30 7.4 °C 2.9 °C 1025.1 hPa SSW 8.4 km/h 11.1 km/h 73% 0.0 mm CLR
05:35 7.2 °C 2.9 °C 1025.1 hPa SSW 8.4 km/h 11.1 km/h 74% 0.0 mm CLR
05:40 7.2 °C 3.1 °C 1025.1 hPa South 8.4 km/h 13.0 km/h 75% 0.0 mm CLR
05:45 7.1 °C 2.9 °C 1025.1 hPa SSW 8.4 km/h 11.1 km/h 75% 0.0 mm CLR
05:50 7.1 °C 2.9 °C 1025.2 hPa South 7.6 km/h 13.0 km/h 75% 0.0 mm CLR
05:55 7.1 °C 2.8 °C 1025.2 hPa SSW 7.6 km/h 11.1 km/h 74% 0.0 mm CLR
06:00 7.2 °C 2.7 °C 1025.2 hPa SSW 8.0 km/h 12.9 km/h 73% 0.0 mm CLR
06:05 7.3 °C 2.6 °C 1025.2 hPa SW 8.4 km/h 11.1 km/h 72% 0.0 mm CLR
06:10 7.3 °C 2.4 °C 1025.2 hPa SW 6.9 km/h 13.0 km/h 71% 0.0 mm CLR
06:15 7.4 °C 2.5 °C 1025.2 hPa SW 6.9 km/h 13.0 km/h 71% 0.0 mm CLR
06:20 7.5 °C 2.4 °C 1025.3 hPa WSW 8.7 km/h 13.0 km/h 70% 0.0 mm CLR
06:25 7.6 °C 2.5 °C 1025.3 hPa SW 8.7 km/h 9.3 km/h 70% 0.0 mm CLR
06:30 7.6 °C 2.5 °C 1025.3 hPa SSW 7.6 km/h 11.9 km/h 70% 0.0 mm CLR
06:35 7.6 °C 2.5 °C 1025.3 hPa SW 7.6 km/h 9.3 km/h 70% 0.0 mm CLR
06:40 7.6 °C 2.5 °C 1025.3 hPa SW 7.6 km/h 11.1 km/h 70% 0.0 mm CLR
06:45 7.6 °C 2.7 °C 1025.3 hPa WSW 7.6 km/h 9.3 km/h 71% 0.0 mm CLR
06:50 7.5 °C 2.6 °C 1025.5 hPa SW 5.8 km/h 9.3 km/h 71% 0.0 mm CLR
06:55 7.5 °C 2.6 °C 1025.5 hPa SSW 5.8 km/h 9.3 km/h 71% 0.0 mm CLR
07:00 7.4 °C 2.5 °C 1025.5 hPa SW 8.0 km/h 12.9 km/h 71% 0.0 mm CLR
07:05 7.4 °C 2.5 °C 1025.5 hPa SSW 6.4 km/h 14.8 km/h 71% 0.0 mm CLR
07:10 7.4 °C 2.7 °C 1025.5 hPa SW 6.9 km/h 9.5 km/h 72% 0.0 mm CLR
07:15 7.3 °C 2.6 °C 1025.5 hPa SW 6.9 km/h 13.0 km/h 72% 0.0 mm CLR
07:20 7.3 °C 2.4 °C 1025.6 hPa SW 7.6 km/h 11.1 km/h 71% 0.0 mm CLR
07:25 7.3 °C 2.4 °C 1025.6 hPa SW 7.6 km/h 11.1 km/h 71% 0.0 mm CLR
07:30 7.3 °C 2.4 °C 1025.6 hPa WSW 8.4 km/h 16.7 km/h 71% 0.0 mm CLR
07:35 7.4 °C 2.3 °C 1025.8 hPa SW 8.4 km/h 14.8 km/h 70% 0.0 mm CLR
07:40 7.6 °C 2.5 °C 1025.8 hPa SW 9.5 km/h 11.1 km/h 70% 0.0 mm CLR
07:45 7.7 °C 2.4 °C 1025.8 hPa SW 9.5 km/h 13.0 km/h 69% 0.0 mm CLR
07:50 7.8 °C 2.4 °C 1026.0 hPa SW 8.4 km/h 13.0 km/h 69% 0.0 mm CLR
07:55 7.8 °C 2.4 °C 1026.0 hPa SW 8.4 km/h 14.8 km/h 69% 0.0 mm CLR
08:00 7.9 °C 2.6 °C 1026.0 hPa SW 9.7 km/h 16.1 km/h 69% 0.0 mm CLR
08:05 8.1 °C 2.6 °C 1026.0 hPa WSW 10.0 km/h 13.0 km/h 68% 0.0 mm CLR
08:10 8.2 °C 2.7 °C 1026.0 hPa WSW 8.7 km/h 14.8 km/h 68% 0.0 mm CLR
08:15 8.4 °C 2.6 °C 1026.0 hPa SSW 8.7 km/h 14.8 km/h 67% 0.0 mm CLR
08:20 8.4 °C 2.6 °C 1026.2 hPa WSW 8.7 km/h 9.3 km/h 67% 0.0 mm CLR
08:25 8.5 °C 2.5 °C 1026.2 hPa SW 8.7 km/h 13.0 km/h 66% 0.0 mm CLR
08:30 8.7 °C 2.9 °C 1026.2 hPa SW 6.9 km/h 14.8 km/h 67% 0.0 mm CLR
08:35 8.7 °C 2.9 °C 1026.3 hPa SE 6.9 km/h 11.1 km/h 67% 0.0 mm CLR
08:40 8.8 °C 2.8 °C 1026.3 hPa SW 8.4 km/h 11.1 km/h 66% 0.0 mm CLR
08:45 8.9 °C 2.9 °C 1026.3 hPa WSW 8.4 km/h 11.1 km/h 66% 0.0 mm CLR
08:50 9.1 °C 2.9 °C 1026.4 hPa SSW 8.4 km/h 15.6 km/h 65% 0.0 mm CLR
08:55 9.2 °C 2.9 °C 1026.4 hPa SSW 8.4 km/h 11.1 km/h 65% 0.0 mm CLR
09:00 9.3 °C 3.1 °C 1026.4 hPa SSW 9.7 km/h 12.9 km/h 65% 0.0 mm CLR
09:05 9.5 °C 3.0 °C 1026.4 hPa SW 8.7 km/h 13.0 km/h 64% 0.0 mm CLR
09:10 9.6 °C 3.1 °C 1026.4 hPa SW 9.5 km/h 14.8 km/h 64% 0.0 mm CLR
09:15 9.7 °C 3.2 °C 1026.4 hPa SW 9.5 km/h 9.3 km/h 64% 0.0 mm CLR
09:20 9.8 °C 3.1 °C 1026.4 hPa SSW 8.7 km/h 18.5 km/h 63% 0.0 mm CLR
09:25 9.8 °C 3.1 °C 1026.4 hPa SSW 8.7 km/h 16.7 km/h 63% 0.0 mm CLR
09:30 9.7 °C 3.2 °C 1026.4 hPa SSW 11.9 km/h 13.0 km/h 64% 0.0 mm CLR
09:35 9.9 °C 3.4 °C 1026.5 hPa SSW 11.9 km/h 14.8 km/h 64% 0.0 mm CLR
09:40 10.1 °C 3.6 °C 1026.5 hPa SW 10.3 km/h 13.0 km/h 64% 0.0 mm CLR
09:45 10.3 °C 3.6 °C 1026.5 hPa South 10.3 km/h 13.0 km/h 63% 0.0 mm CLR
09:50 10.6 °C 3.6 °C 1026.5 hPa SW 10.0 km/h 14.0 km/h 62% 0.0 mm CLR
09:55 10.7 °C 3.5 °C 1026.5 hPa SSW 10.0 km/h 14.8 km/h 61% 0.0 mm CLR
10:00 10.9 °C 3.7 °C 1026.5 hPa SSW 9.7 km/h 16.1 km/h 61% 0.0 mm CLR
10:05 11.2 °C 3.9 °C 1026.4 hPa SSW 9.5 km/h 14.8 km/h 61% 0.0 mm CLR
10:10 11.4 °C 3.9 °C 1026.4 hPa SSW 8.7 km/h 18.5 km/h 60% 0.0 mm CLR
10:15 11.4 °C 3.7 °C 1026.4 hPa South 8.7 km/h 13.0 km/h 59% 0.0 mm CLR
10:20 11.8 °C 4.1 °C 1026.3 hPa South 9.5 km/h 9.3 km/h 59% 0.0 mm CLR
10:25 12.2 °C 3.9 °C 1026.3 hPa SSW 9.5 km/h 9.3 km/h 57% 0.0 mm CLR
10:30 12.4 °C 3.8 °C 1026.3 hPa South 6.9 km/h 13.0 km/h 56% 0.0 mm CLR
10:35 12.7 °C 3.9 °C 1026.2 hPa SW 6.9 km/h 13.0 km/h 55% 0.0 mm CLR
10:40 12.9 °C 3.8 °C 1026.2 hPa WSW 8.4 km/h 11.1 km/h 54% 0.0 mm CLR
10:45 13.2 °C 3.8 °C 1026.2 hPa WSW 8.4 km/h 9.5 km/h 53% 0.0 mm CLR
10:50 13.3 °C 3.7 °C 1026.0 hPa WSW 6.4 km/h 13.0 km/h 52% 0.0 mm CLR
10:55 13.6 °C 3.7 °C 1026.0 hPa SW 6.4 km/h 7.4 km/h 51% 0.0 mm CLR
11:00 13.8 °C 3.6 °C 1026.0 hPa SW 8.0 km/h 20.9 km/h 50% 0.0 mm CLR
11:05 13.9 °C 3.1 °C 1025.8 hPa WNW 6.9 km/h 13.0 km/h 48% 0.0 mm CLR
11:10 14.2 °C 3.3 °C 1025.8 hPa NNE 9.5 km/h 14.0 km/h 48% 0.0 mm CLR
11:15 14.4 °C 3.5 °C 1025.8 hPa ENE 9.5 km/h 6.9 km/h 48% 0.0 mm CLR
11:20 14.7 °C 3.5 °C 1025.8 hPa ENE 6.9 km/h 3.9 km/h 47% 0.0 mm CLR
11:25 14.9 °C 3.4 °C 1025.8 hPa ESE 6.9 km/h 7.6 km/h 46% 0.0 mm CLR
11:30 15.1 °C 3.2 °C 1025.8 hPa ENE 4.7 km/h 13.0 km/h 45% 0.0 mm CLR
11:35 15.2 °C 3.3 °C 1025.7 hPa North 4.7 km/h 14.8 km/h 45% 0.0 mm CLR
11:40 15.3 °C 3.1 °C 1025.7 hPa North 8.7 km/h 16.7 km/h 44% 0.0 mm CLR
11:45 15.1 °C 2.9 °C 1025.7 hPa NW 8.7 km/h 16.7 km/h 44% 0.0 mm CLR
11:50 15.0 °C 2.8 °C 1025.7 hPa NE 9.5 km/h 13.0 km/h 44% 0.0 mm CLR
11:55 15.2 °C 2.3 °C 1025.7 hPa ENE 9.5 km/h 16.7 km/h 42% 0.0 mm CLR
12:00 15.2 °C 2.3 °C 1025.7 hPa NE 11.3 km/h 25.7 km/h 42% 0.0 mm CLR
12:05 15.2 °C 2.7 °C 1025.5 hPa NE 11.1 km/h 27.8 km/h 43% 0.0 mm CLR
12:10 15.1 °C 2.3 °C 1025.5 hPa NNE 13.0 km/h 22.2 km/h 42% 0.0 mm CLR
12:15 15.3 °C 1.8 °C 1025.5 hPa NE 13.0 km/h 27.8 km/h 40% 0.0 mm CLR
12:20 15.1 °C 1.6 °C 1025.3 hPa NE 14.0 km/h 25.9 km/h 40% 0.0 mm CLR
12:25 15.3 °C 2.1 °C 1025.3 hPa NNE 14.0 km/h 25.9 km/h 41% 0.0 mm CLR
12:30 15.4 °C 1.8 °C 1025.3 hPa NNE 16.1 km/h 20.4 km/h 40% 0.0 mm CLR
12:35 15.4 °C 2.2 °C 1025.3 hPa NNE 16.1 km/h 27.8 km/h 41% 0.0 mm CLR
12:40 15.4 °C 1.5 °C 1025.3 hPa NNE 18.0 km/h 27.8 km/h 39% 0.0 mm CLR
12:45 15.7 °C 2.1 °C 1025.3 hPa NNE 18.0 km/h 20.4 km/h 40% 0.0 mm CLR
12:50 16.1 °C 2.1 °C 1025.1 hPa NE 14.8 km/h 22.2 km/h 39% 0.0 mm CLR
12:55 16.1 °C 1.8 °C 1025.1 hPa NE 14.8 km/h 24.1 km/h 38% 0.0 mm CLR
13:00 16.0 °C 1.7 °C 1025.1 hPa NE 14.5 km/h 27.4 km/h 38% 0.0 mm CLR
13:05 15.8 °C 1.5 °C 1025.0 hPa NE 14.0 km/h 22.2 km/h 38% 0.0 mm CLR
13:10 15.6 °C 1.7 °C 1025.0 hPa East 14.8 km/h 25.9 km/h 39% 0.0 mm CLR
13:15 15.6 °C 2.1 °C 1025.0 hPa North 14.8 km/h 16.7 km/h 40% 0.0 mm CLR
13:20 15.7 °C 2.1 °C 1025.0 hPa NNE 13.0 km/h 11.1 km/h 40% 0.0 mm CLR
13:25 15.9 °C 2.3 °C 1025.0 hPa ENE 13.0 km/h 17.2 km/h 40% 0.0 mm CLR
13:30 15.7 °C 2.1 °C 1025.0 hPa ENE 9.5 km/h 16.7 km/h 40% 0.0 mm CLR
13:35 15.8 °C 2.6 °C 1024.8 hPa ENE 9.5 km/h 14.8 km/h 41% 0.0 mm CLR
13:40 16.1 °C 2.1 °C 1024.8 hPa North 10.3 km/h 16.7 km/h 39% 0.0 mm CLR
13:45 16.1 °C 2.5 °C 1024.8 hPa NE 10.3 km/h 11.1 km/h 40% 0.0 mm CLR
13:50 16.1 °C 2.5 °C 1024.6 hPa ENE 11.1 km/h 16.7 km/h 40% 0.0 mm CLR
13:55 16.3 °C 2.7 °C 1024.6 hPa ENE 11.1 km/h 18.5 km/h 40% 0.0 mm CLR
14:00 16.4 °C 2.4 °C 1024.6 hPa ENE 11.3 km/h 27.4 km/h 39% 0.0 mm CLR
14:05 16.2 °C 1.8 °C 1024.3 hPa NNE 10.3 km/h 20.4 km/h 38% 0.0 mm CLR
14:10 16.3 °C 2.3 °C 1024.3 hPa ENE 15.6 km/h 23.7 km/h 39% 0.0 mm CLR
14:15 16.5 °C 2.1 °C 1024.3 hPa ENE 15.6 km/h 22.2 km/h 38% 0.0 mm CLR
14:20 16.7 °C 1.9 °C 1024.1 hPa North 14.0 km/h 29.6 km/h 37% 0.0 mm CLR
14:25 16.5 °C 2.1 °C 1024.1 hPa ESE 14.0 km/h 14.8 km/h 38% 0.0 mm CLR
14:30 16.7 °C 1.9 °C 1024.1 hPa NNW 13.7 km/h 25.9 km/h 37% 0.0 mm CLR
14:35 16.8 °C 1.6 °C 1023.9 hPa NE 13.7 km/h 16.7 km/h 36% 0.0 mm CLR
14:40 16.8 °C 2.0 °C 1023.9 hPa NNE 11.9 km/h 24.1 km/h 37% 0.0 mm CLR
14:45 16.9 °C 2.1 °C 1023.9 hPa East 11.9 km/h 24.1 km/h 37% 0.0 mm CLR
14:50 17.0 °C 1.8 °C 1023.8 hPa NE 11.9 km/h 22.2 km/h 36% 0.0 mm CLR
14:55 16.8 °C 1.6 °C 1023.8 hPa NE 11.9 km/h 14.8 km/h 36% 0.0 mm CLR
15:00 16.7 °C 1.6 °C 1023.8 hPa NE 12.9 km/h 25.7 km/h 36% 0.0 mm CLR
15:05 16.8 °C 1.6 °C 1023.4 hPa NE 12.2 km/h 18.5 km/h 36% 0.0 mm CLR
15:10 17.1 °C 1.9 °C 1023.4 hPa East 11.9 km/h 15.6 km/h 36% 0.0 mm CLR
15:15 17.3 °C 2.1 °C 1023.4 hPa NNE 11.9 km/h 20.4 km/h 36% 0.0 mm CLR
15:20 17.2 °C 2.0 °C 1023.4 hPa NE 10.3 km/h 16.7 km/h 36% 0.0 mm CLR
15:25 17.2 °C 2.0 °C 1023.4 hPa NNE 10.3 km/h 24.1 km/h 36% 0.0 mm CLR
15:30 17.2 °C 2.4 °C 1023.4 hPa North 13.0 km/h 13.0 km/h 37% 0.0 mm CLR
15:35 17.3 °C 2.1 °C 1023.3 hPa NE 13.0 km/h 27.8 km/h 36% 0.0 mm CLR
15:40 17.1 °C 2.3 °C 1023.3 hPa ENE 12.2 km/h 14.8 km/h 37% 0.0 mm CLR
15:45 17.1 °C 2.7 °C 1023.3 hPa NNW 12.2 km/h 24.1 km/h 38% 0.0 mm CLR
15:50 17.3 °C 3.6 °C 1023.3 hPa East 11.9 km/h 19.0 km/h 40% 0.0 mm CLR
15:55 16.9 °C 3.9 °C 1023.3 hPa East 11.9 km/h 25.9 km/h 42% 0.0 mm CLR
16:00 16.8 °C 3.4 °C 1023.3 hPa ENE 14.5 km/h 30.6 km/h 41% 0.0 mm CLR
16:05 16.7 °C 3.4 °C 1023.2 hPa ESE 14.8 km/h 22.2 km/h 41% 0.0 mm CLR
16:10 16.7 °C 3.4 °C 1023.2 hPa East 14.0 km/h 29.6 km/h 41% 0.0 mm CLR
16:15 16.6 °C 3.6 °C 1023.2 hPa North 14.0 km/h 24.1 km/h 42% 0.0 mm CLR
16:20 16.6 °C 3.9 °C 1023.1 hPa East 16.1 km/h 27.8 km/h 43% 0.0 mm CLR
16:25 16.5 °C 4.2 °C 1023.1 hPa NE 16.1 km/h 18.5 km/h 44% 0.0 mm CLR
16:30 16.5 °C 4.2 °C 1023.1 hPa ENE 15.6 km/h 37.0 km/h 44% 0.0 mm CLR
16:35 16.4 °C 4.1 °C 1023.1 hPa ENE 15.6 km/h 22.2 km/h 44% 0.0 mm CLR
16:40 16.4 °C 3.8 °C 1023.1 hPa NE 16.1 km/h 22.2 km/h 43% 0.0 mm CLR
16:45 16.6 °C 4.6 °C 1023.1 hPa East 16.1 km/h 24.1 km/h 45% 0.0 mm CLR
16:50 16.5 °C 4.5 °C 1023.0 hPa NNE 14.0 km/h 27.4 km/h 45% 0.0 mm CLR
16:55 16.4 °C 4.4 °C 1023.0 hPa NE 14.0 km/h 20.4 km/h 45% 0.0 mm CLR
17:00 16.4 °C 4.4 °C 1023.0 hPa ENE 14.5 km/h 30.6 km/h 45% 0.0 mm CLR
17:05 16.5 °C 4.5 °C 1023.0 hPa ENE 14.8 km/h 22.2 km/h 45% 0.0 mm CLR
17:10 16.4 °C 4.4 °C 1023.0 hPa North 13.7 km/h 27.8 km/h 45% 0.0 mm CLR
17:15 16.3 °C 4.7 °C 1023.0 hPa NE 13.7 km/h 31.5 km/h 46% 0.0 mm CLR
17:20 16.2 °C 4.6 °C 1023.1 hPa East 15.6 km/h 18.5 km/h 46% 0.0 mm CLR
17:25 16.2 °C 5.2 °C 1023.1 hPa North 15.6 km/h 18.5 km/h 48% 0.0 mm CLR
17:30 16.2 °C 5.2 °C 1023.1 hPa East 13.7 km/h 22.2 km/h 48% 0.0 mm CLR
17:35 16.1 °C 5.4 °C 1023.1 hPa NE 13.7 km/h 25.9 km/h 49% 0.0 mm CLR
17:40 16.2 °C 5.4 °C 1023.1 hPa East 11.1 km/h 16.7 km/h 49% 0.0 mm CLR
17:45 16.0 °C 5.0 °C 1023.1 hPa East 11.1 km/h 16.7 km/h 48% 0.0 mm CLR
17:50 15.8 °C 5.1 °C 1023.1 hPa ENE 13.0 km/h 22.2 km/h 49% 0.0 mm CLR
17:55 15.7 °C 5.3 °C 1023.1 hPa ENE 13.0 km/h 25.9 km/h 50% 0.0 mm CLR
18:00 15.6 °C 5.2 °C 1023.1 hPa ENE 14.5 km/h 25.7 km/h 50% 0.0 mm CLR
18:05 15.6 °C 5.2 °C 1023.4 hPa ENE 14.0 km/h 18.5 km/h 50% 0.0 mm CLR
18:10 15.5 °C 5.4 °C 1023.4 hPa ENE 12.2 km/h 25.9 km/h 51% 0.0 mm CLR
18:15 15.3 °C 5.5 °C 1023.4 hPa NE 12.2 km/h 25.9 km/h 52% 0.0 mm CLR
18:20 15.2 °C 5.4 °C 1023.6 hPa East 13.0 km/h 16.7 km/h 52% 0.0 mm CLR
18:25 15.2 °C 5.4 °C 1023.6 hPa ENE 13.0 km/h 18.5 km/h 52% 0.0 mm CLR
18:30 15.1 °C 5.3 °C 1023.6 hPa ENE 10.3 km/h 16.7 km/h 52% 0.0 mm CLR
18:35 14.9 °C 5.1 °C 1023.7 hPa East 10.3 km/h 24.1 km/h 52% 0.0 mm CLR
18:40 14.8 °C 5.1 °C 1023.7 hPa NE 12.2 km/h 15.6 km/h 52% 0.0 mm CLR
18:45 14.7 °C 4.9 °C 1023.7 hPa ENE 12.2 km/h 19.8 km/h 52% 0.0 mm CLR
18:50 14.7 °C 4.9 °C 1023.9 hPa NE 11.1 km/h 18.5 km/h 52% 0.0 mm CLR
18:55 14.7 °C 4.9 °C 1023.9 hPa ENE 11.1 km/h 14.8 km/h 52% 0.0 mm CLR
19:00 14.6 °C 4.8 °C 1023.9 hPa NE 9.7 km/h 12.9 km/h 52% 0.0 mm CLR
19:05 14.5 °C 4.8 °C 1024.1 hPa NE 10.0 km/h 18.5 km/h 52% 0.0 mm CLR
19:10 14.4 °C 4.9 °C 1024.1 hPa NE 8.7 km/h 13.0 km/h 53% 0.0 mm CLR
19:15 14.3 °C 5.1 °C 1024.1 hPa ENE 8.7 km/h 14.8 km/h 54% 0.0 mm CLR
19:20 14.2 °C 5.3 °C 1024.1 hPa ENE 9.5 km/h 20.4 km/h 55% 0.0 mm CLR
19:25 14.0 °C 5.3 °C 1024.1 hPa NE 9.5 km/h 13.7 km/h 56% 0.0 mm CLR
19:30 13.9 °C 5.3 °C 1024.1 hPa ENE 10.3 km/h 14.0 km/h 56% 0.0 mm CLR
19:35 13.8 °C 5.4 °C 1024.1 hPa NE 10.3 km/h 9.3 km/h 57% 0.0 mm CLR
19:40 13.7 °C 5.3 °C 1024.1 hPa NE 8.4 km/h 7.4 km/h 57% 0.0 mm CLR
19:45 13.7 °C 5.3 °C 1024.1 hPa NE 8.4 km/h 9.3 km/h 57% 0.0 mm CLR
19:50 13.7 °C 5.3 °C 1024.3 hPa NNE 6.4 km/h 11.1 km/h 57% 0.0 mm CLR
19:55 13.6 °C 5.5 °C 1024.3 hPa NE 6.4 km/h 7.4 km/h 58% 0.0 mm CLR
20:00 13.6 °C 5.2 °C 1024.3 hPa NE 4.8 km/h 9.7 km/h 57% 0.0 mm CLR
20:05 13.4 °C 5.3 °C 1024.5 hPa NE 5.8 km/h 11.1 km/h 58% 0.0 mm CLR
20:10 13.3 °C 5.2 °C 1024.5 hPa NE 7.6 km/h 11.1 km/h 58% 0.0 mm CLR
20:15 13.2 °C 5.1 °C 1024.5 hPa ENE 7.6 km/h 13.0 km/h 58% 0.0 mm CLR
20:20 13.2 °C 5.3 °C 1024.6 hPa NNE 7.6 km/h 14.8 km/h 59% 0.0 mm CLR
20:25 13.1 °C 5.3 °C 1024.6 hPa NE 7.6 km/h 11.1 km/h 59% 0.0 mm CLR
20:30 13.0 °C 5.2 °C 1024.6 hPa NE 6.4 km/h 11.1 km/h 59% 0.0 mm CLR
20:35 12.9 °C 5.1 °C 1024.8 hPa NE 6.4 km/h 9.3 km/h 59% 0.0 mm CLR
20:40 12.8 °C 5.0 °C 1024.8 hPa NE 6.4 km/h 7.4 km/h 59% 0.0 mm CLR
20:45 12.8 °C 5.2 °C 1024.8 hPa NE 6.4 km/h 7.4 km/h 60% 0.0 mm CLR
20:50 12.7 °C 5.1 °C 1025.0 hPa NE 5.8 km/h 5.6 km/h 60% 0.0 mm CLR
20:55 12.6 °C 5.1 °C 1025.0 hPa NNE 5.8 km/h 3.9 km/h 60% 0.0 mm CLR
21:00 12.6 °C 5.1 °C 1025.0 hPa NNE 3.2 km/h 8.0 km/h 60% 0.0 mm CLR
21:05 12.5 °C 5.2 °C 1025.1 hPa NNE 3.9 km/h 3.7 km/h 61% 0.0 mm CLR
21:10 12.4 °C 5.1 °C 1025.1 hPa NNE 2.9 km/h 7.4 km/h 61% 0.0 mm CLR
21:15 12.4 °C 5.1 °C 1025.1 hPa NNE 2.9 km/h 3.7 km/h 61% 0.0 mm CLR
21:20 12.3 °C 5.0 °C 1025.3 hPa NNE 3.9 km/h 3.9 km/h 61% 0.0 mm CLR
21:25 12.2 °C 5.1 °C 1025.3 hPa NNE 3.9 km/h   62% 0.0 mm CLR
21:30 12.2 °C 5.1 °C 1025.3 hPa NNE 2.3 km/h 5.6 km/h 62% 0.0 mm CLR
21:35 12.1 °C 5.1 °C 1025.3 hPa NNE 2.3 km/h 3.7 km/h 62% 0.0 mm CLR
21:40 12.0 °C 5.2 °C 1025.3 hPa NNE 2.9 km/h 3.7 km/h 63% 0.0 mm CLR
21:45 11.9 °C 5.1 °C 1025.3 hPa NNE 2.9 km/h 3.7 km/h 63% 0.0 mm CLR
21:50 11.8 °C 5.2 °C 1025.4 hPa NNE 2.9 km/h   64% 0.0 mm CLR
21:55 11.8 °C 5.2 °C 1025.4 hPa NNE 2.9 km/h 3.7 km/h 64% 0.0 mm CLR
22:00 11.7 °C 5.1 °C 1025.4 hPa NNE 1.6 km/h 4.8 km/h 64% 0.0 mm CLR
22:05 11.7 °C 5.3 °C 1025.6 hPa NNE 2.3 km/h 7.4 km/h 65% 0.0 mm CLR
22:10 11.6 °C 5.2 °C 1025.6 hPa NNE 2.9 km/h 5.8 km/h 65% 0.0 mm CLR
22:15 11.6 °C 5.2 °C 1025.6 hPa NNE 2.9 km/h 5.6 km/h 65% 0.0 mm CLR
22:20 11.5 °C 5.2 °C 1025.6 hPa NNE 3.2 km/h   65% 0.0 mm CLR
22:25 11.4 °C 5.3 °C 1025.6 hPa NNE 3.2 km/h 3.7 km/h 66% 0.0 mm CLR
22:30 11.4 °C 5.3 °C 1025.6 hPa NNE 2.9 km/h 3.7 km/h 66% 0.0 mm CLR
22:35 11.3 °C 5.2 °C 1025.7 hPa NNE 2.9 km/h 3.7 km/h 66% 0.0 mm CLR
22:40 11.3 °C 5.2 °C 1025.7 hPa NNE 2.3 km/h 3.7 km/h 66% 0.0 mm CLR
22:45 11.3 °C 5.2 °C 1025.7 hPa NNE 2.3 km/h 3.7 km/h 66% 0.0 mm CLR
22:50 11.2 °C 5.1 °C 1025.8 hPa NNE 2.9 km/h 3.7 km/h 66% 0.0 mm CLR
22:55 11.2 °C 5.1 °C 1025.8 hPa WNW 2.9 km/h 7.4 km/h 66% 0.0 mm CLR
23:00 11.1 °C 5.0 °C 1025.8 hPa NW 3.2 km/h 9.7 km/h 66% 0.0 mm CLR
23:05 10.9 °C 4.8 °C 1025.7 hPa NW 3.9 km/h 7.4 km/h 66% 0.0 mm CLR
23:10 10.8 °C 4.5 °C 1025.7 hPa NW 5.0 km/h 7.6 km/h 65% 0.0 mm CLR
23:15 10.8 °C 4.5 °C 1025.7 hPa NW 5.0 km/h 7.4 km/h 65% 0.0 mm CLR
23:20 10.8 °C 4.3 °C 1025.6 hPa NW 5.0 km/h 7.4 km/h 64% 0.0 mm CLR
23:25 10.7 °C 3.9 °C 1025.6 hPa NW 5.0 km/h 7.4 km/h 63% 0.0 mm CLR
23:30 10.7 °C 3.7 °C 1025.6 hPa WNW 3.9 km/h 9.3 km/h 62% 0.0 mm CLR
23:35 10.6 °C 3.6 °C 1025.7 hPa NW 3.9 km/h 7.4 km/h 62% 0.0 mm CLR
23:40 10.5 °C 3.7 °C 1025.7 hPa WNW 5.8 km/h 7.4 km/h 63% 0.0 mm CLR
23:45 10.5 °C 3.7 °C 1025.7 hPa WNW 5.8 km/h 7.4 km/h 63% 0.0 mm CLR
23:50 10.5 °C 3.5 °C 1025.7 hPa WNW 5.0 km/h 7.4 km/h 62% 0.0 mm CLR
23:55 10.5 °C 3.5 °C 1025.7 hPa WNW 5.0 km/h 3.9 km/h 62% 0.0 mm CLR
Murcia-Puente Tocinos, España
Compliments of Weather Underground - 2.75 mb

La estación de MeteoMurcia.com, publica sus datos en los siguientes proyectos:

Weather Underground PWS IMURCIAP2 Meteoclimatic www.awekas.at

W3Counter
Web Analytics